Terminal Aerodrome Forecast
Issued by NWS Wilmington, NC

Home | Current Version | Previous Version | Text Only | Print | Product List | Glossary On
Versions: 1 2 3 4 5 6 7 8 9 10 11 12 13 14 15 16 17 18 19 20
000
FTUS42 KILM 271400 AAA
TAFLBT
TAF AMD
KLBT 271414Z 2714/2812 27015G22KT P6SM FEW040
     FM272000 31017G27KT P6SM SCT040
     FM280000 33007KT P6SM SKC=

USA.gov is the U.S. government's official web portal to all federal, state and local government web resources and services.